Location: Unspecified
(0.0000°N, 0.0000°E)
Time: 13:14:52
(UTC+00:00)

SL-12 DEB - Pass Details

Date: 04 May 2025
Orbit: 905 x 18020 km, 65.1° (Epoch: 09 July)

Event Time Altitude Azimuth Distance (km) Brightness Sun altitude
Rises 15:38:50 0° 338° (NNW) 18,104 ? 32.9°
Reaches altitude 10° 16:25:40 10° 356° (N) 21,350 ? 21.8°
Maximum altitude 18:57:22 51° 68° (ENE) 10,570 ? -14.5°
Enters shadow 19:24:31 19° 128° (SE) 7,247 ? -21.0°
